Location: Banios
(43.0451°N, 0.2335°E)
Time: 13:10:11
(UTC+00:00)

A-11 Canister half - Pass Details

Date: 10 May 2021
Orbit: 1513 x 1686 km, 47.2° (Epoch: 14 June)

Event Time Altitude Azimuth Distance (km) Brightness Sun altitude
Rises 12:29:26 0° 170° (S) 4,682 11.9 63.7°
Reaches altitude 10° 12:35:16 10° 142° (SE) 3,679 11.3 63.4°
Maximum altitude 12:38:15 12° 122° (ESE) 3,523 11.1 63.1°
Drops below altitude 10° 12:41:13 10° 103° (ESE) 3,671 11.1 62.9°
Sets 12:46:58 0° 75° (ENE) 4,658 11.3 62.5°
